| time (UTC) | temp C | wind direction | speed KPH | gust KPH | rain 1hr cm | rain 24hr cm | rain mn cm | humidity % | barometer mb |
| 20260510015606 | 13 | 218 | 0.0 | 0.0 | 0.00 | 0.00 | 0.00 | 78 | 1016.5 |
| 20260510012605 | 14 | 106 | 1.6 | 1.6 | 0.00 | 0.00 | 0.00 | 74 | 1015.9 |
| 20260510005606 | 14 | 75 | 1.6 | 1.6 | 0.00 | 0.00 | 0.00 | 74 | 1016.2 |
| 20260510002606 | 14 | 72 | 0.0 | 0.0 | 0.00 | 0.00 | 0.00 | 72 | 1015.9 |
| 20260509235606 | 14 | 59 | 1.6 | 1.6 | 0.00 | 0.00 | 0.00 | 73 | 1016.2 |
| 20260509232604 | 14 | 54 | 0.0 | 0.0 | 0.00 | 0.00 | 0.00 | 71 | 1016.2 |
| 20260509222605 | 15 | 72 | 0.0 | 0.0 | 0.00 | 0.00 | 0.00 | 71 | 1016.2 |
| 20260509215604 | 15 | 72 | 0.0 | 0.0 | 0.00 | 0.00 | 0.00 | 71 | 1016.2 |
| 20260509212606 | 14 | 48 | 0.0 | 0.0 | 0.00 | 0.00 | 0.00 | 69 | 1016.2 |
| 20260509205605 | 15 | 156 | 0.0 | 0.0 | 0.00 | 0.00 | 0.00 | 68 | 1016.2 |
| 20260509202606 | 15 | 160 | 0.0 | 0.0 | 0.00 | 0.00 | 0.00 | 66 | 1015.9 |
| 20260509195608 | 16 | 162 | 0.0 | 0.0 | 0.00 | 0.00 | 0.00 | 63 | 1015.5 |
| 20260509182606 | 20 | 172 | 3.2 | 3.2 | 0.00 | 0.00 | 0.00 | 49 | 1015.2 |
| 20260509175605 | 21 | 159 | 1.6 | 1.6 | 0.00 | 0.00 | 0.00 | 47 | 1015.2 |
| 20260509172606 | 21 | 204 | 4.8 | 4.8 | 0.00 | 0.00 | 0.00 | 43 | 1015.2 |
| 20260509165604 | 22 | 170 | 6.4 | 6.4 | 0.00 | 0.00 | 0.00 | 41 | 1015.5 |
| 20260509155607 | 23 | 173 | 6.4 | 6.4 | 0.00 | 0.00 | 0.00 | 38 | 1015.5 |
| 20260509152605 | 23 | 167 | 6.4 | 6.4 | 0.00 | 0.00 | 0.00 | 38 | 1015.5 |
| 20260509135606 | 24 | 198 | 6.4 | 6.4 | 0.00 | 0.00 | 0.00 | 36 | 1015.9 |
| 20260509132606 | 23 | 190 | 4.8 | 4.8 | 0.00 | 0.00 | 0.00 | 37 | 1016.2 |
| 20260509122606 | 23 | 134 | 1.6 | 1.6 | 0.00 | 0.00 | 0.00 | 39 | 1016.5 |
| 20260509115606 | 22 | 180 | 3.2 | 3.2 | 0.00 | 0.00 | 0.00 | 42 | 1016.9 |
| 20260509112604 | 22 | 169 | 3.2 | 3.2 | 0.00 | 0.00 | 0.00 | 42 | 1017.2 |
| 20260509105604 | 21 | 173 | 3.2 | 3.2 | 0.00 | 0.00 | 0.00 | 40 | 1017.9 |
| 20260509095607 | 20 | 138 | 3.2 | 3.2 | 0.00 | 0.00 | 0.00 | 45 | 1018.2 |
| 20260509082606 | 17 | 174 | 4.8 | 4.8 | 0.00 | 0.00 | 0.00 | 54 | 1019.3 |
| 20260509075606 | 16 | 180 | 1.6 | 1.6 | 0.00 | 0.00 | 0.00 | 59 | 1019.3 |
| 20260509072606 | 15 | 173 | 1.6 | 1.6 | 0.00 | 0.00 | 0.00 | 63 | 1019.3 |
| 20260509065604 | 14 | 145 | 0.0 | 0.0 | 0.00 | 0.00 | 0.00 | 68 | 1019.3 |
| 20260509062605 | 12 | 162 | 0.0 | 0.0 | 0.00 | 0.00 | 0.00 | 69 | 1019.3 |
| 20260509052605 | 9 | 235 | 0.0 | 0.0 | 0.00 | 0.00 | 0.00 | 84 | 1018.9 |
| 20260509045606 | 10 | 235 | 0.0 | 0.0 | 0.00 | 0.00 | 0.00 | 82 | 1018.9 |
| 20260509042607 | 10 | 240 | 0.0 | 0.0 | 0.00 | 0.00 | 0.00 | 80 | 1018.9 |
| 20260509035604 | 10 | 246 | 0.0 | 0.0 | 0.00 | 0.00 | 0.00 | 81 | 1018.9 |
| 20260509032605 | 11 | 234 | 0.0 | 0.0 | 0.00 | 0.00 | 0.00 | 81 | 1019.3 |
| 20260509025605 | 11 | 236 | 0.0 | 0.0 | 0.00 | 0.00 | 0.00 | 82 | 1019.3 |
| 20260509022606 | 10 | 234 | 0.0 | 0.0 | 0.00 | 0.00 | 0.00 | 82 | 1018.9 |